Location: *
(45.9500°N, 9.0833°E)
Time: 20:03:37
(UTC+00:00)

Vanguard 2 Rocket - Pass Details

Date: 19 June 2021
Orbit: 555 x 3325 km, 32.9° (Epoch: 30 July)

Event Time Altitude Azimuth Distance (km) Brightness Sun altitude
Rises 17:32:55 0° 219° (SW) 7,162 11.8 15.3°
Reaches altitude 10° 17:38:17 10° 212° (SSW) 6,252 11.4 14.4°
Maximum altitude 17:55:19 36° 155° (SSE) 4,197 10.0 11.7°
Drops below altitude 10° 18:09:04 10° 97° (E) 5,099 10.2 9.5°
Sets 18:12:50 0° 89° (E) 5,762 10.4 8.9°
